METEOR 1-14

Satellite information

Favourite Embed

Satellite Type and Status

PAYLOADIN ORBIT

Key statistics

Satellite METEOR 1-14 at a glance.

Uptime

19040

Days in orbit

Revolutions

≈ 14.1

Per day

Orbit

LEO

Low Earth Orbit

Inclination

81.2

Latest

Satellite identification and parameters

Extended collection of information and parameters for METEOR 1-14.

Object identification

Identified? True

Debris? False

Object name: METEOR 1-14

International designator: 1973-015A

Object number (NORAD): 6392

Object ID (CCSDS): 6392

Country: COMMONWEALTH OF INDEPENDENT STATES (CIS)

Current information (Y/N): Y

RCS size: LARGE

Orbital parameters

Period: 102.272 minutes

Inclination: 81.2343 deg

SMA: 7244.331 km

Apoapsis: 903.985 km

Periapsis: 828.406 km

RAAN: 323.731 deg

Eccentricy: 0.0052164

Argument of periapsis: 269.2265 deg

Mean anomaly: 90.2927 deg

Mean motion: 14.08008825 rev/day

Mean motion (dot): 0.00000283 rev/day2

B* drag term: 0.0001574 1/REarth

Two-line elements (TLE)

Creation date: May 6, 2025, 3:54 a.m.

Reference frame: TEME

Reference center: EARTH

Epoch: May 5, 2025, 7:05 p.m. UTC

TLE line 0: 0 METEOR 1-14

TLE line 1: 1 06392U 73015A 25125.79540352 .00000283 00000-0 15740-3 0 9999

TLE line 2: 2 06392 81.2343 323.7310 0052164 269.2265 90.2927 14.08008825675364

Live tracking on map

Real-time ground track for satellite METEOR 1-14.

In-orbit conjunctions

A list of the most updated potential collisions computed for object METEOR 1-14.

Target Orbit TCA Probability of collision Miss distance Type
FENGYUN 1C DEB SSO 2024-12-31 16:55:21 0.0001474899 120.0 (m) DEBRIS
SCOUT G-1 DEB LEO 2024-11-18 14:50:07 0.0001560188 282.0 (m) DEBRIS
FENGYUN 1C DEB SSO 2024-10-30 01:29:01 0.000132915 210.0 (m) DEBRIS
COSMOS 1275 DEB LEO 2024-10-27 08:36:20 0.0002352611 346.0 (m) DEBRIS
YAOGAN 9B DEB LEO 2024-09-26 04:00:52 0.0001136631 527.0 (m) DEBRIS

Associated space launch

The Meteor-1 series was the first series of Soviet meteorological satellites.

METEOR 1-14 was lifted into orbit during the mission ‘Vostok 8A92M | Meteor-1 14 (29L)’, on board a Vostok 8A92M space rocket.

The launch took place on March 20, 1973, 11:20 a.m. from 41/1.

For more information about the launch, click the button.

Launch to space Vostok 8A92M | Meteor-1 14 (29L)
Vostok 8A92M | Meteor-1 14 (29L)

Agency: N/A

Status: Launch Successful

Launch date: March 20, 1973, 11:20 a.m. UTC

Rocket: Vostok 8A92M

Launch pad: 41/1

Location: Plesetsk Cosmodrome, Russian Federation

...

Latest news about this satellite

There are no fresh news available about this satellite. Check back as we update our databases every day.


Newsletter sign-up

Weekly statistics, charts and insights to help you stay on top of the space industry.